CZ-4C R/B

Satellite information

Favourite Embed

Satellite Type and Status

ROCKET BODYIN ORBIT

Key statistics

Satellite CZ-4C R/B at a glance.

Uptime

3852

Days in orbit

Revolutions

≈ 13.4

Per day

Orbit

SSO

Sun Synchronous Orbit

Inclination

100.2

Latest

Satellite identification and parameters

Extended collection of information and parameters for CZ-4C R/B.

Object identification

Identified? True

Debris? False

Object name: CZ-4C R/B

International designator: 2014-063B

Object number (NORAD): 40276

Object ID (CCSDS): 40276

Country: PEOPLES REPUBLIC OF CHINA (PRC)

Current information (Y/N): Y

RCS size: LARGE

Orbital parameters

Period: 107.222 minutes

Inclination: 100.2291 deg

SMA: 7476.227 km

Apoapsis: 1204.941 km

Periapsis: 991.242 km

RAAN: 42.0081 deg

Eccentricy: 0.0142919

Argument of periapsis: 152.3727 deg

Mean anomaly: 208.5089 deg

Mean motion: 13.43009376 rev/day

Mean motion (dot): -0.00000021 rev/day2

B* drag term: 0.000040244 1/REarth

Two-line elements (TLE)

Creation date: May 7, 2025, 3:14 a.m.

Reference frame: TEME

Reference center: EARTH

Epoch: May 6, 2025, 6:26 p.m. UTC

TLE line 0: 0 CZ-4C R/B

TLE line 1: 1 40276U 14063B 25126.76854002 -.00000021 00000-0 40244-4 0 9993

TLE line 2: 2 40276 100.2291 42.0081 0142919 152.3727 208.5089 13.43009376516958

Live tracking on map

Real-time ground track for satellite CZ-4C R/B.

In-orbit conjunctions

A list of the most updated potential collisions computed for object CZ-4C R/B.

Target Orbit TCA Probability of collision Miss distance Type
SL-16 DEB LEO 2025-01-02 19:37:41 0.0008086103 190.0 (m) DEBRIS

Associated space launch

CZ-4C R/B was lifted into orbit during the mission ‘Long March 4C | Yaogan-22’, on board a Long March 4C space rocket.

The launch took place on Oct. 20, 2014, 6:31 a.m. from Launch Complex 9.

For more information about the launch, click the button.

Launch to space Long March 4C | Yaogan-22
Long March 4C | Yaogan-22

Agency: N/A

Status: Launch Successful

Launch date: Oct. 20, 2014, 6:31 a.m. UTC

Rocket: Long March 4C

Launch pad: Launch Complex 9

Location: Taiyuan Satellite Launch Center, People's Republic of China

...

Latest news about this satellite

There are no fresh news available about this satellite. Check back as we update our databases every day.


Newsletter sign-up

Weekly statistics, charts and insights to help you stay on top of the space industry.